Theta_e
287 288 287 287 286 286 285 286 285 285 286 285 283 284 285 284 280 278 284 285 284 286 288 282 281 281 281 279 279 280 279 279 279 279 280 280 280 281 281 281 281 281 281 282 282 282 283 284 284 284 285 285 285 285 284 285 285 285 286 286 286 285 284 284 284 285 284 284 285 285 285 284 284 284 284 284 284 284 283 282 283 282 282 282 281 281 281
283 283 283 285 284 284 284 285 286 286 285 285 285 285 286 285 283 285 285 285 285 287 279 282 279 280 281 280 280 279 279 279 279 279 279 279 280 280 281 281 281 281 281 282 282 282 282 283 283 283 284 284 284 284 284 284 284 285 285 285 285 285 284 284 284 284 283 283 284 284 284 284 284 284 284 283 283 283 282 282 282 282 281 281 281 281 281
279 282 283 283 283 283 282 284 284 284 283 283 284 284 285 286 285 286 286 285 284 280 280 281 282 281 282 281 279 278 279 279 279 279 279 280 280 281 282 282 281 280 281 281 282 282 282 282 283 283 283 284 284 284 284 284 284 285 285 284 284 284 284 284 284 283 283 282 282 283 283 284 284 284 284 283 283 282 282 281 281 280 280 280 280 281 281
275 280 280 281 281 281 280 280 282 282 282 280 282 281 284 283 281 282 282 282 282 278 280 280 281 280 279 279 279 279 279 280 280 280 280 280 281 281 281 281 281 281 281 281 281 281 282 282 283 283 283 283 283 283 284 284 284 285 285 284 284 284 284 284 284 283 282 282 281 281 282 282 283 284 283 283 282 282 281 280 280 280 280 280 280 280 280
272 277 278 276 277 276 273 275 279 281 282 282 283 284 282 279 280 277 278 278 277 277 280 277 278 279 279 278 280 279 280 280 279 280 280 281 281 281 281 281 281 281 281 281 282 282 282 283 283 284 284 283 283 283 283 284 284 284 284 284 283 284 284 284 284 284 282 281 281 280 281 281 281 281 281 281 281 281 280 281 280 280 280 280 280 280 280
271 275 274 273 270 265 268 279 281 283 281 282 280 280 277 278 278 276 279 277 279 278 278 277 276 278 278 279 280 282 280 279 279 278 279 280 281 282 282 282 282 282 282 282 283 283 283 283 284 284 284 284 284 284 284 284 284 284 284 284 283 283 284 284 284 283 283 282 280 280 279 279 279 279 279 280 281 281 280 280 279 280 280 279 280 279 279
269 272 269 269 264 266 276 278 278 277 277 277 275 274 276 278 279 278 277 278 277 279 279 279 278 278 279 280 280 280 281 281 280 279 280 281 282 282 282 282 282 282 282 282 282 283 283 284 284 284 283 283 283 283 284 284 284 284 284 284 283 283 283 283 283 283 282 281 281 280 279 278 277 277 278 279 279 279 279 280 280 279 279 279 279 279 279
268 267 266 263 263 275 277 278 277 278 277 277 274 274 276 277 279 279 276 278 277 279 279 280 280 279 279 280 280 281 281 282 280 281 281 281 282 282 282 282 282 281 281 281 282 282 283 283 283 282 282 283 282 282 284 283 284 284 284 283 283 284 283 283 283 283 282 281 280 280 279 278 276 277 277 277 278 278 278 278 279 279 279 279 279 279 279
265 265 267 267 273 273 275 274 275 274 272 273 271 268 275 273 274 276 276 278 278 279 279 280 280 280 280 278 278 281 281 282 282 282 282 282 282 283 283 283 282 282 281 282 282 282 282 282 282 282 282 282 281 282 282 282 282 282 282 282 283 283 283 283 283 283 282 281 280 280 279 278 277 277 277 277 277 277 276 277 278 278 279 279 279 279 278
274 266 265 266 266 264 268 274 274 276 276 276 277 274 269 274 269 275 278 278 278 278 278 278 279 280 276 272 275 279 280 282 282 283 283 283 283 283 283 282 282 281 281 281 282 282 281 281 281 281 281 280 280 280 281 281 281 281 281 281 282 282 283 283 283 283 282 282 281 281 279 278 278 278 277 277 278 277 277 277 278 278 278 278 278 277 277
274 272 269 268 266 267 272 271 274 275 278 279 278 274 268 276 272 275 278 277 278 278 278 278 279 275 270 271 274 278 280 280 281 281 281 282 282 282 282 281 280 280 280 281 281 281 280 279 280 280 279 279 279 279 279 279 279 279 280 280 281 282 282 283 283 283 282 282 282 281 280 280 279 278 278 279 279 277 277 278 278 278 276 277 276 276 276
272 271 269 267 273 269 275 273 276 277 277 277 276 266 268 273 272 274 278 277 277 277 278 277 275 272 267 270 274 276 278 279 280 280 279 279 280 280 280 280 280 280 280 279 279 279 279 279 279 278 278 278 278 277 277 278 277 278 279 279 281 281 282 282 283 283 283 282 282 281 281 281 280 280 279 277 277 277 277 276 276 276 275 275 275 275 275
271 273 270 272 270 277 274 271 273 274 276 273 263 263 267 272 271 273 276 276 276 276 275 275 271 275 276 276 278 277 277 276 277 277 277 277 277 277 277 278 281 278 278 278 277 277 277 277 277 276 276 276 275 275 276 276 276 277 278 279 280 280 280 280 282 283 283 282 281 281 281 280 279 278 278 278 277 276 275 275 275 274 274 274 274 273 273
266 267 266 267 270 272 269 271 274 274 271 262 265 270 273 271 271 271 276 277 277 277 276 276 276 277 278 278 277 277 277 277 277 276 276 276 276 276 276 277 277 275 275 275 276 276 275 275 275 274 274 273 274 274 275 275 276 277 278 278 277 277 277 279 282 283 283 282 282 281 280 278 278 278 277 276 276 275 275 274 273 273 272 272 272 272 271
266 267 266 266 263 271 272 274 273 273 267 267 273 274 273 274 272 273 273 276 276 277 276 278 278 278 277 277 277 277 277 276 276 276 276 275 275 275 275 275 274 274 273 273 273 273 274 273 273 274 273 272 272 273 273 274 276 276 276 275 275 275 277 280 281 280 280 280 281 280 279 279 278 277 277 275 274 274 273 273 272 272 271 271 270 270 270
266 265 264 262 267 272 272 271 267 269 273 275 275 275 275 274 274 273 274 275 276 277 277 278 278 278 277 277 276 276 275 276 275 275 275 275 275 274 274 273 272 271 272 272 272 272 272 271 271 271 271 271 271 271 272 274 274 274 273 273 274 275 276 277 277 277 277 277 278 279 279 278 278 277 276 275 274 273 273 273 272 272 271 271 270 270 270
268 261 265 270 269 272 272 273 274 276 277 278 277 276 275 274 274 274 273 275 276 277 278 278 278 277 277 276 277 275 275 275 275 275 275 274 274 274 273 273 271 270 271 270 270 270 270 270 270 269 269 269 270 270 271 272 271 271 271 272 273 274 274 273 273 273 274 274 275 276 277 278 277 277 276 275 273 273 273 272 272 272 272 271 270 270 270
275 274 275 277 275 274 276 278 279 278 278 278 277 274 273 274 275 275 275 276 276 277 277 277 276 276 277 276 274 274 274 274 274 274 274 273 273 272 271 270 270 269 269 267 268 268 268 269 269 269 269 268 268 269 270 269 269 270 270 270 270 270 269 269 270 270 270 271 273 274 276 277 277 277 277 276 274 274 273 272 272 272 272 271 271 271 270
270 266 276 274 274 276 276 276 277 278 276 276 276 274 274 275 276 276 276 276 276 277 276 276 277 276 275 273 274 273 273 273 273 273 272 272 271 270 269 270 269 268 268 267 267 267 267 268 268 268 268 268 268 268 267 268 268 268 267 267 266 266 266 267 267 268 269 270 272 273 274 276 277 276 276 276 275 274 273 272 272 272 272 271 271 271 270
270 270 274 276 276 276 276 276 276 276 278 278 275 275 276 276 276 276 276 276 276 275 273 274 273 273 273 272 272 271 271 271 271 271 270 270 270 270 269 269 267 266 266 266 266 266 266 267 267 267 267 266 267 266 266 266 266 265 264 264 264 264 264 265 265 266 267 269 271 272 273 275 276 276 276 275 274 274 273 273 272 272 272 272 271 271 271
274 276 276 276 276 276 276 277 277 277 277 277 276 276 276 275 275 275 275 273 273 272 272 271 271 269 270 270 269 269 269 269 269 269 269 269 268 268 268 268 266 266 266 265 265 265 265 266 266 266 265 265 265 265 265 264 264 263 263 263 263 263 263 264 264 266 267 268 269 270 272 273 275 276 276 276 275 275 275 275 275 274 273 273 273 273 272
269 270 273 275 270 270 275 276 277 275 274 274 274 274 274 274 274 273 272 271 271 270 270 270 269 267 268 268 268 267 268 268 268 268 268 267 267 267 267 267 266 265 265 264 264 264 265 265 265 264 264 264 264 264 263 263 262 261 261 261 261 261 262 263 264 265 266 268 269 270 271 272 273 275 277 279 278 276 275 277 279 279 279 275 275 274 273
269 274 276 276 276 275 276 277 278 275 273 273 273 273 272 271 270 270 269 268 269 268 268 269 267 266 267 267 267 266 266 267 267 267 266 265 265 266 266 265 265 264 264 264 264 263 264 264 263 262 262 262 262 262 261 261 261 260 260 260 260 261 262 262 263 264 265 265 267 268 269 271 272 273 274 276 280 281 280 279 279 279 280 280 280 278 275
276 277 277 277 276 275 277 277 273 269 268 269 269 268 268 268 268 268 267 267 266 266 266 266 266 267 266 266 265 264 265 265 265 265 265 265 265 265 265 265 264 263 263 263 262 262 262 262 261 261 261 261 261 260 260 260 260 259 259 259 259 259 260 261 262 263 264 265 266 267 269 271 272 273 273 273 274 278 280 281 281 280 280 280 281 280 279
275 278 278 276 275 274 274 271 268 267 266 266 266 266 266 266 266 266 265 265 265 265 264 265 265 266 264 264 264 264 263 264 264 264 265 265 265 264 264 263 262 262 262 262 261 261 261 260 260 260 259 259 260 259 259 259 259 259 259 259 258 259 259 260 262 263 264 265 267 268 269 271 272 273 273 273 273 273 275 279 281 281 280 280 281 281 280
273 272 269 269 270 272 271 270 267 264 264 265 265 265 265 265 265 264 264 264 264 264 264 263 263 264 264 263 263 263 263 263 263 264 263 262 262 262 262 261 261 261 261 260 260 259 259 258 258 258 258 259 259 259 259 259 258 258 258 258 259 259 260 261 262 263 265 266 268 270 271 272 273 273 274 274 273 273 273 272 273 277 280 280 280 280 281
264 265 266 271 272 272 263 264 264 264 264 265 264 263 264 264 264 263 263 262 262 262 262 262 262 262 262 262 261 262 261 262 262 261 261 260 260 260 260 260 260 259 259 258 258 258 258 258 258 257 257 258 258 258 258 258 258 258 259 259 260 262 263 264 264 265 266 266 265 265 266 267 268 270 272 273 273 273 272 272 271 271 272 275 278 280 278
262 262 265 267 269 264 261 263 263 264 263 263 262 262 263 262 260 259 259 260 261 260 261 260 261 260 260 261 260 259 259 259 258 258 258 258 258 259 259 258 258 257 257 257 256 257 257 256 256 256 256 257 258 258 258 258 258 258 259 259 260 260 261 262 262 262 262 263 264 264 264 265 267 269 272 273 273 272 272 272 272 271 272 273 274 277 280
260 260 261 261 262 262 262 262 262 262 261 262 262 261 260 257 257 258 258 260 260 259 259 259 259 259 259 259 258 257 257 257 256 256 256 257 257 257 257 256 256 256 255 255 255 255 255 255 255 255 256 257 258 258 258 258 258 258 258 259 259 259 260 261 261 262 262 263 263 264 266 266 267 268 269 271 272 272 272 271 271 271 271 272 272 273 276
258 259 258 260 261 259 259 259 259 259 259 260 259 258 258 257 256 257 258 258 258 257 258 258 258 257 257 256 256 256 255 255 255 256 256 256 256 256 255 255 255 255 255 254 254 255 255 255 255 255 256 257 258 258 258 258 258 258 258 259 259 259 260 261 262 263 263 264 265 266 266 267 267 268 269 271 272 271 271 270 271 270 270 271 272 271 272
257 257 257 259 257 257 257 257 258 258 258 257 257 256 256 256 255 255 256 256 256 256 256 256 255 255 255 255 255 255 255 255 254 254 254 254 254 254 254 254 253 252 253 254 254 255 255 255 255 256 257 258 258 258 258 258 259 259 259 260 260 261 262 263 264 263 263 264 264 265 267 268 268 269 270 270 271 270 270 270 270 270 270 270 271 271 272
254 254 256 257 256 255 255 255 255 256 256 256 254 254 255 254 253 253 254 253 254 254 254 253 253 253 254 254 254 254 253 253 253 253 253 253 253 254 254 254 254 255 255 255 255 255 255 256 256 257 258 258 258 258 258 258 258 257 257 258 258 258 260 261 261 262 263 263 264 264 264 264 265 268 270 270 270 270 270 269 269 269 270 270 270 271 272
252 255 255 254 253 254 254 254 254 253 254 253 254 254 254 254 254 254 253 254 253 253 253 253 253 253 253 253 253 252 252 252 252 252 252 253 253 254 255 255 255 255 255 255 256 256 256 256 256 257 257 257 257 257 257 257 256 256 257 258 258 259 260 261 261 260 261 261 261 262 263 264 266 266 267 269 270 270 269 269 269 269 269 270 270 272 273
252 252 252 252 252 252 252 252 253 252 253 254 254 253 253 253 253 253 252 252 252 252 252 252 252 252 252 252 252 251 251 251 251 251 252 253 254 254 255 256 256 256 256 256 256 256 256 256 256 256 256 256 256 256 256 256 256 256 257 257 257 257 257 258 259 259 259 260 260 262 262 264 264 266 268 269 269 269 269 269 269 269 269 270 271 271 273
254 254 254 253 253 253 253 252 252 251 251 251 251 251 252 252 251 251 252 252 251 252 252 253 252 252 252 251 251 251 251 251 252 252 253 254 255 255 255 254 254 253 253 254 255 255 256 256 256 255 255 255 256 256 256 256 256 256 256 256 257 257 257 258 258 258 259 259 261 261 262 263 264 266 268 269 269 269 268 269 269 269 269 269 270 270 272
251 251 250 251 250 250 250 250 251 250 250 250 250 251 251 251 251 251 251 251 252 253 253 252 252 251 251 251 251 252 252 253 253 254 255 254 254 254 253 252 252 251 251 252 254 255 255 255 256 256 256 256 256 256 256 256 256 256 257 257 257 257 258 258 259 259 260 260 261 262 263 264 266 268 268 268 268 268 268 268 268 269 269 269 269 270 271
249 250 250 250 251 250 250 250 250 250 251 250 251 251 250 250 251 251 251 251 251 252 251 251 251 250 251 252 253 254 254 255 255 254 253 253 252 252 251 251 251 251 252 251 253 255 255 255 256 257 256 256 256 256 257 258 257 258 258 258 258 258 259 259 259 260 260 261 262 263 264 265 266 267 268 268 268 268 268 268 268 268 268 268 269 269 266
251 251 250 250 250 250 250 250 250 250 250 249 250 250 250 250 250 251 250 251 251 251 251 251 251 252 253 254 254 255 255 254 253 252 252 252 252 251 251 251 251 252 251 252 254 255 255 256 256 256 256 256 257 257 258 259 259 259 259 259 259 260 260 260 261 262 262 263 263 264 265 265 266 266 267 267 267 267 267 267 267 267 267 266 263 263 263
250 251 251 251 250 250 250 250 250 249 249 248 249 249 250 250 251 251 250 250 251 251 251 252 253 253 254 254 254 254 253 253 253 252 251 251 252 251 251 252 252 253 253 255 255 255 256 256 257 257 257 257 257 258 258 259 260 260 260 261 261 262 262 263 263 263 263 264 264 265 265 266 266 266 266 266 266 265 265 266 266 264 262 262 262 261 261
250 250 250 250 249 249 249 250 249 249 249 249 249 249 250 250 250 250 250 249 250 252 253 253 253 253 254 254 253 252 252 252 252 251 251 251 251 251 252 253 254 255 255 256 255 256 256 257 257 256 257 257 258 258 259 260 260 260 260 260 260 261 261 262 262 262 263 263 263 263 264 263 263 263 263 263 263 263 264 263 262 262 261 261 260 260 259
249 250 250 250 249 250 249 249 249 249 249 249 249 249 250 250 250 249 249 250 251 253 253 254 254 254 254 253 252 252 252 252 251 251 251 251 251 251 251 251 254 255 255 255 256 256 256 256 256 256 257 257 258 259 259 260 259 259 259 259 260 260 260 260 260 260 261 261 261 261 261 261 261 261 261 262 262 262 262 261 261 260 260 259 258 258 258
249 249 249 249 249 249 249 249 250 249 248 249 249 249 249 250 250 249 250 251 252 253 254 255 255 254 254 253 252 252 251 251 251 251 251 251 251 251 251 252 254 255 256 256 256 256 255 255 256 257 257 257 258 259 259 259 258 258 258 258 259 259 259 259 259 260 260 260 260 260 260 260 260 260 260 260 260 260 260 259 259 259 259 258 258 258 257
248 248 248 248 249 249 249 249 248 248 248 248 248 248 248 249 250 251 252 252 253 254 255 254 254 254 253 252 252 251 251 252 252 251 252 253 253 253 252 253 254 255 256 256 255 255 254 255 255 256 257 257 258 258 259 258 258 258 258 258 258 258 258 259 259 259 259 259 259 259 259 259 259 259 259 259 259 259 259 258 258 258 257 257 257 257 257
248 249 249 249 248 248 248 248 247 247 246 247 249 249 250 250 251 251 252 253 254 255 254 254 253 253 252 252 251 251 251 251 251 251 251 252 253 254 254 254 254 255 256 255 255 254 254 254 255 256 257 257 257 257 257 257 257 257 257 257 257 257 257 258 258 258 258 258 258 258 258 258 259 259 259 259 258 258 257 257 257 257 257 257 257 257 256
248 248 248 248 248 247 247 247 247 247 248 249 249 249 250 250 252 253 253 254 254 254 254 254 253 253 252 252 251 251 251 251 251 250 249 250 250 251 254 255 255 255 255 255 254 254 254 254 255 256 256 256 256 256 256 256 256 256 256 257 257 257 257 257 257 257 257 257 257 258 258 258 258 258 258 257 257 257 256 256 256 257 257 256 256 256 255
248 249 248 248 247 246 247 248 248 249 248 248 248 250 251 252 253 254 255 254 254 254 254 254 254 253 253 252 251 251 251 250 249 249 250 251 251 252 254 254 254 255 255 255 254 253 253 255 255 255 255 255 255 254 255 255 255 255 256 256 256 256 256 256 256 256 256 256 257 257 257 257 257 257 257 257 256 256 256 256 256 256 257 256 256 255 254
247 247 247 246 246 246 247 247 247 248 247 248 249 251 254 255 255 255 255 255 255 255 254 254 253 253 253 252 251 251 250 250 251 252 252 253 254 254 254 254 255 255 254 253 253 253 253 254 254 254 254 254 254 252 253 253 254 254 254 255 255 255 255 255 255 255 256 256 256 256 256 256 256 256 256 256 256 256 255 255 255 255 254 254 254 254 253
246 246 246 246 246 246 246 246 246 247 249 251 253 253 254 254 254 254 255 255 254 254 254 254 253 253 253 252 251 250 250 249 249 251 253 252 253 252 252 253 254 254 254 253 253 253 254 254 254 254 253 253 251 251 251 252 252 252 253 253 253 253 254 254 254 254 254 255 255 255 255 254 255 255 255 255 254 254 254 254 253 253 253 253 253 253 253
246 246 246 246 246 246 247 249 251 252 253 254 254 254 254 254 254 254 254 254 254 254 254 253 253 253 253 253 252 251 250 250 248 249 251 252 252 252 252 253 253 253 253 252 251 251 252 253 253 253 252 252 250 250 250 250 251 251 251 251 252 252 252 253 253 253 253 253 253 253 253 253 254 254 253 253 253 253 253 253 253 253 253 252 252 252 251
248 248 249 250 250 250 252 252 252 253 254 254 253 254 254 254 253 253 254 254 254 254 254 253 253 253 253 253 253 252 251 250 251 251 251 251 251 252 252 252 252 253 252 251 251 251 252 252 252 252 251 250 250 250 250 250 250 250 250 250 250 250 251 252 252 252 252 252 252 252 252 253 253 252 252 252 252 252 252 252 252 251 251 251 250 249 249
250 250 251 252 253 253 254 254 254 254 254 254 254 255 255 254 253 254 254 254 253 253 253 253 253 253 253 253 253 252 251 251 251 253 252 252 252 253 253 253 252 252 252 251 250 250 250 250 250 251 251 250 250 250 250 250 249 250 250 249 249 250 250 250 250 249 250 250 250 250 250 250 251 251 251 251 251 251 251 250 250 250 250 250 249 249 248
251 252 253 254 254 254 254 254 255 255 255 255 255 255 254 254 254 253 254 255 254 253 253 252 252 253 254 253 253 252 252 252 251 252 253 252 252 252 252 252 252 251 250 250 250 250 251 250 251 251 251 250 249 249 250 250 249 249 249 250 250 249 249 249 249 249 248 249 248 248 249 248 249 248 248 248 249 248 248 248 248 248 248 247 247 247 247
Wind_Speed
11 11 13 10 11 9 10 11 12 14 14 15 17 19 19 15 15 18 10 12 18 18 11 6 6 7 6 6 7 7 4 5 7 10 12 13 13 13 13 13 13 13 13 12 13 13 12 13 14 14 14 14 12 11 11 11 11 12 11 11 12 11 11 10 12 13 12 9 8 10 11 10 10 11 12 12 11 10 11 13 12 13 12 12 12 12 12
6 11 12 11 13 12 12 11 9 10 12 17 17 19 14 15 16 16 17 17 20 10 4 5 5 2 4 4 2 3 8 9 9 9 10 10 10 11 11 11 11 11 12 11 11 12 13 13 14 14 13 14 14 14 14 13 13 13 12 12 12 13 12 11 11 11 11 11 10 10 10 11 12 11 10 10 10 11 12 12 11 10 10 12 13 14 13
11 11 12 12 14 11 13 10 11 13 16 19 17 13 14 18 20 17 19 18 14 6 3 4 3 4 1 3 3 6 6 7 8 8 9 9 8 10 10 11 11 10 11 12 12 13 13 14 13 12 12 11 11 11 12 14 13 13 11 12 12 11 12 12 12 11 10 10 9 10 11 11 10 10 11 10 10 10 10 9 10 10 10 13 14 13 14
12 12 14 13 12 12 12 13 14 18 20 19 12 12 12 13 15 13 12 12 7 2 4 3 2 4 4 6 4 5 4 5 6 7 9 8 8 6 7 8 9 11 10 10 11 12 13 13 13 13 13 12 11 12 11 11 11 11 12 13 13 11 10 10 9 9 9 10 9 9 8 10 10 10 9 8 9 9 9 9 9 9 13 14 13 12 12
10 15 11 8 8 10 14 13 19 21 19 17 19 19 6 1 2 4 8 4 3 3 3 2 3 3 4 3 4 2 0 1 3 6 8 7 7 5 5 6 6 8 9 9 8 9 9 10 12 14 13 13 13 13 13 12 10 9 8 9 11 12 12 13 13 12 10 8 8 8 8 8 7 7 7 8 8 8 10 10 8 11 13 12 14 13 13
10 13 13 4 7 11 14 10 1 3 14 12 15 10 2 4 1 2 2 3 2 0 2 3 5 4 5 3 4 3 3 1 3 3 3 4 4 4 5 5 6 7 8 8 9 8 8 8 8 9 9 10 12 13 13 13 12 12 12 11 9 10 9 11 12 13 13 13 13 11 8 7 6 6 7 9 9 8 6 6 9 11 11 13 12 12 13
10 9 6 10 14 14 5 2 1 2 4 6 4 5 2 3 5 7 6 5 1 4 2 4 3 5 5 4 6 4 2 0 4 8 7 8 7 9 8 8 7 7 8 9 8 9 9 9 9 10 11 10 12 12 12 14 14 15 15 14 13 12 11 12 11 12 12 13 14 13 11 9 7 6 7 7 7 7 7 9 11 12 12 12 12 11 11
3 2 4 8 10 5 1 1 2 1 5 5 8 2 4 1 2 3 2 3 4 5 5 5 6 4 7 4 7 7 4 2 1 3 5 6 6 7 7 6 7 7 8 8 8 9 8 8 9 9 9 10 12 13 12 11 12 12 12 14 15 15 15 14 13 12 12 13 13 12 11 9 8 8 7 7 8 6 6 7 7 7 7 8 10 11 11
9 5 9 15 8 16 7 4 2 3 2 1 2 4 2 6 3 2 3 4 5 5 6 7 6 6 4 6 7 5 6 4 4 6 6 6 7 7 7 6 7 6 5 6 7 7 7 7 9 9 9 11 12 12 12 11 11 12 12 12 12 13 14 15 16 16 15 14 13 12 11 11 10 9 8 8 7 4 6 7 8 9 9 10 9 10 11
9 6 6 7 5 10 3 2 6 2 2 2 2 6 4 6 2 4 6 6 7 7 7 7 7 4 3 7 3 5 5 5 6 6 7 7 7 8 8 6 6 5 5 5 6 6 7 8 8 8 10 11 12 11 12 11 12 12 12 12 12 11 12 13 13 13 13 13 14 14 12 12 11 10 8 6 7 5 7 8 9 10 8 8 8 8 10
6 8 9 7 8 6 4 7 4 5 3 3 3 2 5 4 1 5 8 9 8 7 7 8 3 0 4 7 6 6 7 5 4 5 6 7 8 7 6 6 6 6 4 5 6 5 5 8 8 8 11 11 11 11 11 12 11 12 12 13 13 13 14 13 12 12 11 11 12 12 13 13 11 11 10 9 7 4 6 7 8 7 6 8 8 7 8
9 10 10 9 4 3 2 5 3 4 3 2 2 6 4 3 6 3 7 9 8 7 8 6 4 5 6 7 8 4 4 3 4 4 7 7 6 6 6 5 6 5 4 4 5 5 7 8 7 8 8 9 9 11 11 10 11 11 11 12 13 13 13 14 13 12 11 11 11 11 12 13 11 10 9 8 7 6 6 6 7 6 6 8 9 8 7
10 15 11 6 5 1 2 5 4 2 3 3 2 15 3 1 6 7 7 8 9 7 7 6 6 9 9 9 10 6 4 3 5 6 4 5 5 6 5 6 5 3 4 4 5 6 5 6 6 6 6 7 9 9 10 11 11 11 12 12 12 13 14 14 14 12 11 10 12 13 11 11 10 9 8 8 8 6 8 6 6 7 8 8 8 7 6
8 7 10 11 7 5 4 5 5 4 3 1 12 2 4 4 4 5 9 9 9 8 10 8 10 10 11 9 6 6 8 8 6 6 7 6 6 6 5 6 4 4 5 6 7 7 6 6 6 5 6 8 9 10 10 12 11 11 11 12 12 13 14 14 13 11 11 12 11 11 11 9 10 11 9 7 7 7 6 6 8 10 8 7 7 6 6
0 1 7 6 8 1 5 1 1 2 3 7 1 2 3 4 5 5 6 7 9 8 10 11 12 12 10 9 10 9 8 8 9 7 6 7 7 7 7 7 5 4 6 8 8 9 8 5 5 6 6 9 10 9 11 13 10 10 12 12 13 14 14 14 12 13 13 14 14 11 11 11 10 12 10 7 8 7 7 8 9 10 8 7 6 6 5
10 7 7 5 4 3 3 2 5 2 5 3 4 5 11 4 6 5 6 6 8 8 10 12 12 11 11 9 9 8 7 8 8 7 6 6 6 7 6 5 6 4 6 8 10 10 9 7 6 6 6 10 11 12 13 9 7 10 11 13 13 14 14 13 14 13 13 13 14 13 13 12 10 11 11 9 7 7 7 8 8 9 8 7 7 8 8
5 5 5 6 3 1 3 4 5 7 11 11 10 7 8 7 6 5 4 7 9 8 10 12 12 10 9 11 10 7 9 8 8 9 9 8 9 9 9 9 6 4 8 9 10 12 13 11 7 6 6 9 13 16 12 6 10 11 12 12 13 14 14 14 14 14 13 13 14 13 15 12 12 11 11 9 9 8 8 9 9 10 9 8 9 9 8
8 7 9 13 6 6 13 13 12 13 15 14 9 6 6 7 9 5 8 8 10 10 8 9 8 10 11 10 8 8 7 7 9 9 9 9 8 7 7 8 7 6 7 7 9 12 15 14 10 6 7 7 12 15 10 9 11 11 13 13 13 14 15 15 16 15 17 16 15 13 15 12 11 11 11 10 10 10 8 10 10 10 10 9 9 9 9
9 12 14 8 8 10 10 10 12 11 8 10 9 4 4 7 8 9 7 9 10 11 7 9 11 10 8 7 8 6 6 8 10 11 11 10 9 9 10 10 7 8 8 10 12 12 15 16 11 9 10 10 11 11 11 10 10 12 13 15 15 15 14 15 15 14 14 14 12 13 14 12 11 11 10 10 10 11 10 11 11 11 11 10 10 10 10
12 16 16 13 9 9 9 9 11 14 16 12 5 6 7 8 8 8 10 7 9 4 6 6 5 7 6 5 6 6 8 10 10 10 9 10 11 12 9 8 7 8 10 12 13 14 15 16 12 11 12 12 12 11 10 10 10 11 14 15 14 15 15 14 11 14 12 18 18 13 12 14 11 10 10 10 11 12 12 12 12 12 11 11 12 12 11
11 15 15 13 13 12 15 16 13 13 12 11 9 9 8 8 8 10 8 2 3 0 2 2 1 4 8 5 4 7 9 10 10 10 10 11 11 13 14 11 7 10 10 13 13 14 17 16 13 13 14 13 13 11 10 9 10 13 15 17 15 16 15 13 13 11 9 12 12 14 13 13 12 12 12 11 12 13 14 12 12 13 12 13 12 11 10
14 13 14 9 9 10 11 11 10 5 4 5 7 6 6 6 6 5 6 4 2 1 2 1 2 4 7 8 4 8 10 11 12 12 12 12 13 14 12 9 9 11 11 12 14 16 17 14 13 14 15 15 13 10 9 10 10 11 14 15 15 16 13 12 13 13 12 11 12 11 13 12 13 14 14 19 16 13 13 15 22 22 17 13 12 10 11
14 14 14 11 11 11 11 13 12 3 3 3 4 4 4 5 6 5 6 8 7 3 2 2 3 4 7 10 7 9 11 13 13 12 12 14 14 15 13 12 13 12 13 13 13 16 16 13 13 14 14 16 13 9 7 9 9 12 13 14 14 14 14 13 14 13 12 13 11 11 11 13 13 14 13 12 22 29 26 18 18 23 26 25 20 16 13
17 18 17 14 10 12 13 10 4 6 6 5 3 4 4 5 5 6 5 4 5 9 8 4 2 5 8 9 7 11 14 15 15 14 13 13 13 13 13 12 13 15 17 16 15 15 14 13 14 14 15 16 14 10 9 9 10 12 12 12 12 14 12 13 15 16 12 13 12 15 14 13 13 12 13 14 12 17 24 26 27 26 26 28 27 24 22
15 14 12 7 5 6 2 2 6 6 7 7 4 5 6 6 5 5 6 5 3 5 8 11 7 4 6 11 9 11 13 16 15 14 15 16 15 14 13 13 15 14 15 14 13 14 14 17 16 16 17 19 16 12 9 10 10 13 15 14 14 15 14 15 14 16 15 14 14 13 13 13 12 11 12 12 13 11 10 19 25 27 27 27 27 26 24
4 6 7 5 4 3 2 2 4 9 8 6 4 4 5 5 6 7 5 5 7 6 8 9 12 11 5 9 10 11 12 16 17 15 14 14 15 14 13 13 14 12 13 13 16 15 17 16 19 19 20 20 15 12 13 13 14 14 15 14 16 14 14 15 15 14 14 14 13 11 9 10 10 11 12 12 12 12 11 7 10 17 24 27 26 25 25
7 5 7 8 12 4 12 6 3 7 6 5 5 6 6 7 7 6 6 6 7 7 8 9 9 11 9 7 9 10 12 15 15 15 13 14 15 15 13 13 14 14 16 15 17 17 18 19 19 19 20 19 14 13 13 14 15 15 15 15 14 19 29 24 15 13 10 9 10 13 15 15 16 16 16 14 11 11 10 11 10 10 10 12 19 24 19
6 6 6 3 8 3 4 4 4 4 4 5 6 6 7 7 7 8 9 9 7 5 6 5 7 8 11 10 7 12 11 12 13 15 15 15 12 12 13 15 14 16 16 18 16 16 17 18 19 19 20 16 12 13 14 15 16 17 16 15 14 12 14 16 15 13 12 13 12 13 15 16 15 16 15 12 12 12 11 11 11 10 9 9 9 15 26
6 4 4 2 1 3 3 3 2 3 5 5 5 6 6 10 11 8 8 8 9 11 11 8 6 7 9 12 10 12 13 13 15 15 16 14 14 14 15 15 18 16 17 16 18 14 16 17 16 17 18 14 14 15 15 16 15 14 14 13 14 13 13 11 13 11 14 12 14 13 16 16 15 15 16 15 11 10 9 9 9 9 9 7 6 7 13
5 4 3 2 3 3 3 3 3 5 5 6 7 5 7 8 11 11 9 9 8 11 11 11 12 11 9 11 11 10 14 18 18 16 15 15 15 15 14 15 15 18 15 15 14 15 15 15 16 16 17 15 14 13 15 15 14 16 16 17 15 13 13 12 12 14 14 14 14 19 16 15 13 14 15 14 11 10 9 9 9 9 9 8 9 9 10
6 5 3 0 3 4 4 4 3 4 5 4 6 9 8 5 7 11 12 10 10 10 12 12 13 15 13 11 12 12 13 14 16 16 15 14 13 15 14 15 14 16 16 17 17 15 15 17 15 16 16 15 14 14 14 15 14 13 13 13 13 21 27 29 24 17 13 15 16 15 14 14 13 14 14 12 10 9 9 8 9 9 9 9 9 9 10
5 5 0 1 3 3 4 2 4 4 5 6 6 8 7 9 11 13 13 12 11 11 14 15 14 14 14 13 14 14 14 12 15 13 16 15 16 13 13 13 17 18 19 18 16 15 15 16 18 16 15 15 14 14 13 13 12 13 14 13 16 15 17 24 17 17 16 15 13 11 13 13 14 13 11 10 11 10 9 9 10 9 9 9 10 10 9
5 5 3 7 9 7 5 3 7 8 6 8 8 7 7 6 7 10 11 12 14 14 12 13 12 13 13 13 14 14 15 16 15 15 15 14 15 15 15 15 16 17 16 13 16 14 16 15 16 13 15 15 14 14 14 14 13 12 12 11 12 13 15 16 18 16 15 16 14 14 14 14 13 13 14 10 9 8 9 9 9 9 10 9 10 9 8
1 1 3 2 2 5 9 11 5 9 9 7 7 8 7 7 8 10 11 11 12 14 13 13 13 13 12 13 13 15 15 15 14 14 16 18 18 17 15 14 14 16 16 16 17 15 15 14 15 13 14 14 15 13 13 13 13 13 13 13 13 13 13 13 14 13 13 14 14 16 15 15 14 14 12 10 9 8 9 9 8 8 8 8 7 7 12
3 5 6 4 4 5 6 8 10 9 10 12 9 6 7 8 9 10 11 12 13 13 13 14 13 13 13 13 14 14 13 14 15 16 17 16 15 15 17 18 19 18 18 18 16 15 14 15 14 14 15 15 15 15 14 15 14 13 14 14 14 13 13 13 13 12 13 13 12 12 13 13 14 14 14 11 9 8 8 8 8 7 7 7 6 7 9
3 4 4 6 5 6 7 8 8 9 10 11 11 11 11 9 10 11 12 12 10 12 13 14 14 13 13 12 14 13 15 15 15 14 16 16 19 17 16 17 18 18 18 19 16 13 13 13 16 21 17 14 15 14 15 13 13 13 13 13 12 12 13 13 13 13 13 12 13 13 12 14 14 12 10 9 9 8 8 8 7 7 7 7 6 7 8
3 5 5 6 7 6 8 8 8 9 10 11 12 13 14 12 11 11 10 11 11 11 12 12 13 13 14 13 14 15 14 12 13 15 15 15 14 14 16 15 16 15 15 16 15 13 14 14 19 26 19 13 13 14 15 20 13 11 11 12 12 12 11 12 12 11 12 12 12 13 13 12 10 10 8 8 8 7 7 6 5 5 6 6 7 6 4
5 5 6 6 7 7 8 8 8 9 11 13 12 11 12 13 11 11 11 11 11 11 11 11 13 14 14 13 11 11 14 15 15 15 16 16 14 16 16 14 12 13 13 12 15 15 13 17 23 19 13 12 11 12 15 22 22 15 11 11 11 11 11 11 11 10 11 10 11 11 11 10 9 7 6 6 5 6 5 5 5 6 5 5 6 7 7
6 5 5 6 6 8 10 9 7 7 8 13 13 12 11 11 11 11 11 11 11 11 11 12 13 13 12 12 14 14 14 14 15 16 16 17 15 14 15 15 13 12 12 15 16 15 15 15 16 14 12 12 14 13 15 18 19 12 10 10 10 9 10 9 9 9 10 10 9 10 10 8 6 5 4 4 4 4 3 5 6 5 7 7 7 7 8
6 6 8 7 8 8 8 10 8 9 8 8 10 13 11 11 10 10 11 11 11 10 11 11 13 11 12 13 14 14 14 15 15 15 16 16 16 15 15 13 10 11 14 19 16 13 18 25 18 11 11 12 12 11 11 15 16 10 9 8 8 8 7 6 6 5 4 3 2 1 2 3 4 4 4 4 5 5 5 7 8 8 8 7 8 7 8
7 8 7 7 8 8 9 9 10 9 8 9 9 10 10 10 10 10 12 12 11 10 11 11 10 10 11 12 13 15 14 14 14 13 13 13 14 13 12 14 13 14 15 15 15 15 17 16 13 12 12 12 11 12 11 13 10 8 8 8 7 6 6 6 6 6 5 5 5 5 5 5 6 6 5 6 7 7 7 8 7 7 7 8 7 8 8
8 7 8 9 9 9 9 9 9 9 9 9 9 9 11 10 10 11 12 11 12 11 11 9 9 11 11 11 12 12 13 12 12 13 11 9 11 12 13 14 15 14 22 22 18 15 13 13 14 12 13 13 12 17 18 10 8 7 7 7 7 7 6 7 6 6 6 6 6 6 6 6 7 7 7 7 7 7 8 8 8 8 8 8 8 8 9
7 8 9 9 9 9 9 9 9 10 11 10 10 9 9 9 9 10 10 10 11 10 9 7 8 9 9 10 11 12 11 11 13 14 15 10 9 8 9 12 14 14 24 17 15 11 11 11 12 11 20 18 15 21 17 8 8 7 7 7 7 7 8 7 7 7 7 7 7 7 6 6 7 7 7 7 7 7 8 8 8 8 8 8 8 8 8
9 9 9 10 9 9 8 9 9 9 9 11 9 8 8 9 10 10 10 10 9 8 7 8 8 7 8 8 8 8 10 11 11 10 10 14 15 6 5 11 12 15 22 16 13 11 11 11 11 19 24 24 23 20 11 9 9 8 8 8 7 8 8 8 8 8 7 7 7 6 6 6 7 7 7 7 8 8 8 8 8 8 8 8 8 9 9
8 9 9 9 9 9 8 8 9 9 9 9 9 9 10 10 10 9 8 7 7 6 6 6 7 6 6 6 6 7 7 7 7 7 9 11 13 15 15 16 16 12 15 21 12 11 10 12 18 25 22 25 23 20 11 10 10 9 9 9 8 8 8 8 8 8 8 8 8 7 7 7 6 7 7 8 8 7 8 8 8 7 8 8 8 9 9
9 9 8 8 9 9 9 9 9 8 9 9 9 10 9 8 6 5 5 6 6 5 5 6 6 7 6 7 7 7 6 5 3 4 4 4 8 12 14 15 13 14 21 20 11 11 11 21 25 24 23 23 21 13 11 11 10 10 10 10 9 9 9 8 8 8 8 7 7 7 7 7 7 7 7 6 7 8 8 9 8 8 7 8 8 9 9
8 8 9 8 9 9 9 8 6 7 7 7 7 6 4 4 6 5 5 6 5 6 5 4 4 5 5 6 6 8 10 12 10 3 2 6 8 10 12 16 14 18 16 11 11 11 14 16 19 24 24 22 18 11 10 11 11 10 11 10 10 10 9 9 9 8 8 8 9 9 9 9 8 8 8 8 8 8 7 8 8 8 8 8 8 8 8
8 9 10 10 12 12 9 7 5 6 6 6 5 5 5 5 6 5 5 4 5 5 4 3 3 3 4 4 3 2 3 3 9 9 5 9 9 9 9 8 11 18 17 12 14 13 22 24 24 24 23 20 12 11 11 11 11 11 11 11 11 11 10 9 9 9 8 9 9 8 8 8 8 8 8 8 8 7 7 8 8 8 7 8 8 7 8
9 10 11 10 7 9 7 5 5 5 4 4 5 5 5 6 5 4 3 4 5 4 3 3 2 2 3 3 3 4 3 2 2 6 9 9 8 9 9 10 14 15 12 9 10 9 16 22 21 22 20 15 11 10 10 10 10 10 10 10 10 10 10 10 9 9 9 9 9 8 8 8 8 8 8 8 7 7 7 8 8 7 7 7 7 7 9
7 6 6 6 5 5 5 5 4 4 4 4 4 4 4 4 3 3 3 4 4 4 3 2 1 3 4 5 4 4 4 4 5 5 6 7 7 7 8 8 8 13 13 10 10 10 12 17 16 16 13 10 10 10 9 10 10 10 9 10 9 9 10 10 10 12 9 9 9 8 8 8 7 8 8 7 7 8 8 8 8 9 13 10 8 9 11
6 6 6 5 4 5 5 4 4 5 4 4 4 4 4 3 3 4 3 4 3 4 4 4 3 4 5 5 5 5 5 5 5 6 6 7 6 7 8 8 8 8 9 9 8 9 9 9 10 11 10 9 9 9 9 9 9 9 9 9 9 8 9 10 9 9 9 9 8 8 8 8 8 8 8 7 7 7 7 7 7 7 7 7 7 7 6
6 6 4 3 4 5 5 4 5 3 3 3 3 3 3 3 3 3 3 5 4 4 5 6 6 5 5 6 6 6 6 7 7 6 6 7 7 6 8 9 8 8 8 8 8 8 8 8 9 10 10 9 8 8 8 9 9 8 8 9 7 8 9 8 8 8 8 8 8 8 8 7 7 8 7 7 7 7 7 7 7 6 6 6 6 6 6
Wind_Direction
261 271 286 292 293 277 284 281 287 279 278 274 264 260 257 257 248 265 280 294 290 286 296 59 50 39 49 43 26 25 19 24 22 24 23 16 8 4 8 2 1 1 359 355 352 352 350 350 352 352 352 353 354 355 354 349 346 345 343 340 339 336 326 318 314 307 300 282 268 263 256 252 247 241 235 231 227 220 214 217 216 214 208 206 206 208 207
313 297 288 287 285 289 283 276 270 272 276 273 269 270 279 277 272 268 268 267 266 285 67 34 71 0 55 82 42 23 30 21 21 21 20 18 6 2 359 356 353 350 349 349 348 348 348 349 349 349 350 350 349 350 349 347 344 343 344 344 344 343 343 334 321 310 300 294 286 276 269 258 250 243 238 232 225 223 221 219 217 213 209 207 207 206 202
292 290 281 274 272 282 280 277 278 276 269 267 265 276 271 266 265 270 267 265 268 77 14 24 23 28 253 94 53 41 32 23 21 20 11 7 0 357 348 348 347 344 343 343 345 348 347 346 344 343 342 341 341 344 344 342 342 339 341 341 345 344 341 339 332 324 314 298 285 274 264 260 258 250 241 234 228 226 224 216 214 210 205 209 211 206 202
284 280 278 284 290 282 279 276 271 265 263 269 271 259 249 254 268 276 288 273 257 69 45 327 10 346 11 21 11 42 25 21 22 19 6 355 347 337 332 328 334 340 340 340 342 341 341 339 339 341 340 339 340 342 340 337 335 334 339 340 339 337 334 334 334 328 321 307 290 272 263 258 253 249 245 238 233 227 221 218 214 207 211 212 211 208 205
250 269 280 300 314 318 279 252 247 254 265 263 264 261 287 50 113 253 246 249 99 250 313 20 325 51 335 44 332 166 211 20 23 11 355 346 331 325 318 309 320 327 331 331 331 334 336 336 336 335 336 335 338 338 334 330 327 329 333 333 331 332 335 338 339 338 331 322 304 292 279 267 261 256 246 240 236 227 222 219 210 214 218 211 213 210 206
285 288 293 338 321 270 255 269 49 190 251 261 266 274 51 327 155 220 88 159 84 165 287 3 338 335 336 288 275 217 156 259 347 1 322 316 301 304 305 309 322 321 324 325 325 328 327 325 325 321 329 328 328 331 328 328 331 332 334 334 334 328 331 335 336 336 337 336 330 320 306 291 280 267 254 245 240 232 229 215 216 221 221 220 218 212 211
268 282 334 311 258 257 287 41 275 66 75 89 106 103 158 191 141 124 130 148 158 220 250 237 259 254 277 264 269 256 220 119 355 336 327 327 328 317 314 318 319 318 316 315 317 324 329 331 330 330 329 333 330 328 332 331 332 334 335 333 333 334 334 334 337 337 337 335 331 327 323 314 296 274 258 257 248 234 222 217 217 218 217 219 218 215 213
306 229 225 250 261 105 7 220 148 165 86 128 93 75 151 135 144 131 98 198 180 230 245 255 249 256 265 266 260 244 210 160 258 289 284 293 293 290 286 289 295 304 308 308 312 315 318 325 325 327 324 330 331 325 327 326 325 328 328 330 329 333 335 335 336 336 335 331 327 324 322 318 307 288 272 255 250 238 226 233 231 231 233 226 221 218 214
239 221 216 247 324 309 266 240 268 125 179 151 133 225 222 160 253 165 199 228 216 223 236 241 253 269 295 285 274 181 184 190 212 217 250 256 264 263 266 264 275 281 285 291 300 305 311 318 322 322 329 331 327 323 323 324 326 324 326 325 327 329 329 331 333 333 333 329 324 321 320 319 310 296 283 270 257 239 231 229 223 222 225 220 219 217 213
227 259 282 282 269 257 293 220 273 281 216 153 256 103 286 127 282 234 196 221 222 220 238 244 251 282 294 309 296 206 217 202 222 235 239 252 252 255 258 262 264 278 284 286 293 298 310 315 317 325 332 330 325 322 322 323 325 322 322 320 323 324 321 323 323 323 322 321 320 318 318 313 304 299 286 273 265 236 232 235 228 225 219 224 221 217 214
255 256 254 256 263 262 139 214 207 250 183 168 229 96 273 165 238 261 190 224 230 219 225 240 221 179 278 287 287 231 194 222 220 246 252 252 258 256 260 265 274 275 270 282 289 298 309 311 317 334 329 325 322 318 319 320 319 316 317 320 324 322 319 317 315 313 313 313 313 312 310 306 305 301 296 286 275 256 246 244 244 236 217 220 223 216 217
230 248 253 255 244 254 226 187 244 211 94 169 99 308 292 104 287 234 189 213 234 234 227 218 197 197 244 271 277 238 218 211 246 255 268 270 266 271 270 274 272 276 287 301 296 300 306 304 318 325 319 316 313 313 312 312 309 308 313 318 318 315 315 314 310 308 308 310 309 308 303 299 297 290 289 290 274 259 254 245 249 235 226 220 216 216 206
248 249 265 275 288 287 184 193 242 276 164 114 266 265 253 217 189 220 190 212 230 230 230 199 199 223 218 237 256 271 289 295 278 272 260 262 268 272 272 272 274 287 282 274 276 279 281 293 307 311 309 308 303 301 300 299 299 304 311 316 316 318 315 310 305 303 307 308 307 304 299 294 293 289 280 271 269 256 252 249 248 243 230 229 221 216 199
234 238 253 252 266 234 173 271 193 205 91 253 248 244 154 182 225 210 190 213 230 230 230 223 221 233 237 247 260 271 271 270 260 259 271 280 283 278 278 275 292 302 296 288 285 283 277 287 298 301 301 297 296 296 295 293 297 307 314 317 318 315 309 303 301 306 311 310 306 299 298 296 290 284 276 264 261 255 248 240 236 237 233 226 226 221 209
277 210 249 261 259 354 114 199 27 214 162 230 220 283 269 196 225 218 223 205 233 226 245 236 235 239 249 247 246 247 259 268 272 272 273 278 278 282 289 292 287 297 296 287 278 278 285 288 292 291 292 289 286 287 284 289 306 315 317 316 314 308 303 301 307 312 311 311 308 304 297 292 282 278 276 262 253 243 241 237 235 238 230 226 221 225 223
263 233 236 215 213 181 227 114 223 231 217 233 298 306 294 252 206 222 234 235 235 235 233 242 242 239 242 255 254 256 262 260 264 269 268 268 273 273 264 257 275 282 278 283 289 287 285 284 285 287 291 290 288 287 282 295 314 313 313 311 307 303 302 304 307 307 308 305 305 303 295 287 277 271 268 257 249 235 233 231 233 233 230 220 219 220 215
224 207 230 253 246 200 221 180 236 242 268 278 275 246 250 267 262 222 225 257 265 249 240 238 237 246 236 237 242 247 255 266 270 274 274 276 279 282 285 288 289 286 276 286 291 292 292 293 289 286 278 281 285 284 289 328 315 311 308 305 303 302 306 307 305 304 304 300 295 296 293 282 272 266 261 248 246 239 226 232 229 229 229 211 216 219 217
266 247 248 268 276 277 283 275 276 280 281 284 280 244 254 238 245 250 260 272 271 268 244 234 240 232 239 246 256 255 264 273 278 282 285 283 277 276 282 287 289 280 280 280 283 286 291 290 292 291 283 274 281 284 306 319 311 308 308 308 307 304 302 301 301 304 302 297 293 288 287 277 262 256 255 244 234 239 222 230 227 227 229 218 218 218 220
276 268 256 258 263 267 270 272 274 276 267 260 274 269 231 258 269 276 269 258 262 261 239 219 230 237 243 255 266 282 293 282 278 282 283 286 285 284 285 282 294 297 291 288 286 286 288 289 294 295 291 286 279 292 304 311 310 311 311 309 303 298 292 293 296 297 297 295 294 293 287 280 265 256 248 242 235 235 226 226 225 225 226 222 222 219 220
246 264 269 266 252 252 264 265 274 275 277 276 256 240 256 270 275 273 274 281 267 234 225 229 240 265 281 276 284 292 285 283 285 286 287 289 293 286 278 282 288 286 282 282 285 289 287 287 295 293 287 286 288 296 303 307 313 313 305 298 296 293 289 291 289 289 288 288 289 286 284 280 271 259 245 234 235 231 226 221 222 226 221 221 221 216 218
256 262 263 267 273 272 268 264 255 256 268 283 288 276 272 274 278 276 279 241 281 126 297 41 298 298 285 294 296 287 286 286 285 286 289 287 284 286 288 288 285 276 283 284 283 285 284 287 292 290 286 287 288 296 301 307 311 306 298 295 291 286 285 287 283 278 273 273 276 282 281 278 267 259 256 244 235 240 232 225 220 222 219 225 223 218 213
262 261 269 271 278 276 271 268 273 255 237 241 262 277 284 284 289 321 320 320 15 31 35 27 330 286 292 297 299 286 282 281 285 288 287 287 287 285 283 289 283 282 278 278 283 283 283 288 291 288 289 288 288 293 302 300 299 290 289 290 288 284 283 281 280 284 284 275 273 271 273 273 276 272 251 242 240 236 246 226 229 230 226 228 222 208 213
260 262 260 256 257 268 270 278 286 352 10 333 319 335 346 3 31 9 1 338 329 344 9 26 331 288 283 289 301 292 286 283 283 284 286 288 287 286 293 295 290 285 284 282 281 280 281 289 287 288 288 289 290 296 297 290 289 284 280 281 280 279 283 280 282 285 283 283 278 273 271 271 271 273 279 259 246 247 245 241 230 233 234 236 232 215 205
263 270 274 277 272 269 275 285 357 50 20 28 29 44 24 15 4 6 6 360 335 316 316 302 284 289 290 287 294 285 286 284 284 286 285 280 277 284 289 288 289 290 291 290 286 283 285 287 288 290 288 286 288 297 295 286 279 275 272 275 278 277 276 276 282 281 275 273 275 274 272 268 265 265 264 269 261 242 244 247 245 242 239 236 235 230 221
254 262 274 284 289 283 310 85 89 61 40 23 22 4 3 353 355 2 341 322 322 310 306 303 298 274 284 289 286 282 283 285 285 288 289 288 287 287 288 290 288 289 289 290 289 289 289 291 291 289 287 285 291 298 288 280 274 273 271 268 268 271 272 276 277 275 268 266 267 267 267 268 268 262 261 257 260 268 240 238 243 243 239 237 235 232 226
298 314 322 303 265 284 350 121 97 45 6 12 3 353 348 349 330 335 319 321 309 306 296 294 299 300 286 282 286 284 283 281 288 292 290 290 291 292 292 291 294 295 291 289 289 289 291 291 289 288 286 285 294 297 293 284 276 267 266 262 263 264 270 272 273 268 262 259 260 264 273 275 276 274 265 256 253 252 259 248 241 245 244 240 237 233 229
41 7 347 328 287 266 62 45 302 337 342 357 359 337 334 330 333 317 311 298 285 285 280 283 284 290 294 282 281 279 281 291 295 290 288 288 289 293 296 298 296 293 292 289 287 287 288 289 287 285 283 286 294 289 280 278 275 272 268 269 269 274 275 276 268 265 269 284 290 288 282 276 269 262 260 261 252 249 243 242 237 232 224 230 231 228 226
59 11 29 231 273 352 339 353 312 327 348 349 344 337 337 333 328 323 319 318 314 309 298 292 297 303 302 301 304 298 295 287 283 289 292 290 293 296 297 298 296 293 289 286 283 285 286 284 282 281 280 284 286 278 277 277 277 275 275 272 271 269 272 274 276 279 276 275 274 273 273 274 281 285 282 263 241 234 234 233 234 232 237 225 223 225 225
22 20 7 342 339 350 325 289 275 348 338 340 344 344 346 338 324 319 314 320 319 316 312 314 308 301 299 300 308 299 295 291 290 289 292 295 298 299 299 296 292 287 284 283 284 282 280 277 276 277 277 282 279 277 277 277 274 274 273 271 272 269 267 261 264 260 263 259 260 260 265 265 263 259 259 260 252 242 231 229 227 228 229 223 213 223 228
337 345 338 317 50 4 340 7 355 338 332 338 343 344 345 325 320 315 313 317 322 312 305 312 308 303 304 298 297 296 297 298 297 298 297 297 299 297 294 292 287 280 277 273 272 276 274 274 276 276 281 283 278 276 277 274 271 272 270 270 267 265 264 262 255 261 258 256 257 265 266 260 250 249 255 254 247 234 227 224 223 222 220 215 210 206 206
311 307 276 232 15 6 21 325 338 309 322 336 345 326 325 327 306 303 309 316 317 303 306 307 305 303 305 300 297 294 291 289 291 293 293 292 290 289 286 285 285 291 291 288 285 280 276 278 275 275 283 282 279 278 277 277 277 276 275 279 281 281 283 284 283 280 281 279 276 269 256 251 246 246 245 245 235 228 224 221 222 218 217 211 209 207 207
315 316 148 101 1 332 327 332 329 326 321 331 331 327 330 331 318 309 309 308 304 308 308 309 307 307 304 305 303 300 297 292 291 291 290 290 288 283 279 278 277 277 281 283 283 280 280 280 281 283 285 286 286 286 286 285 284 282 281 280 277 277 275 275 273 272 270 271 275 284 288 287 285 288 279 247 232 225 221 220 220 217 214 210 210 207 197
6 359 347 344 342 335 315 343 334 318 329 319 314 307 308 297 292 293 297 303 307 308 305 298 300 299 302 301 303 301 301 298 295 292 291 291 290 290 289 287 285 284 283 282 283 282 284 284 287 290 291 292 291 289 285 282 279 275 276 270 272 275 279 280 277 278 275 274 271 268 268 268 270 261 261 259 243 227 221 220 217 215 212 212 209 201 188
73 242 255 279 264 279 298 300 303 295 299 287 290 298 294 292 293 293 296 297 296 297 298 301 300 301 300 303 301 302 301 303 305 304 301 299 299 298 293 291 296 298 296 297 296 295 295 292 292 293 293 291 288 286 282 279 277 277 277 277 277 277 274 272 271 267 266 264 262 262 262 262 259 259 256 242 236 229 223 220 216 214 210 210 204 193 194
312 292 291 284 284 283 286 288 297 297 298 299 297 279 276 285 288 286 289 293 296 298 301 300 300 300 302 299 300 298 298 294 294 298 301 303 308 314 317 313 310 305 301 298 295 296 293 293 293 293 291 289 287 285 282 279 277 276 274 273 272 269 267 264 263 258 258 258 257 258 256 252 252 250 246 240 229 224 221 217 213 205 205 197 191 181 187
302 288 289 278 275 269 271 272 275 277 284 284 289 295 296 293 292 294 296 295 295 297 298 298 300 300 298 297 299 301 301 300 297 304 314 319 318 313 309 307 307 306 304 301 298 297 300 297 294 293 294 292 290 286 282 280 276 273 271 270 266 263 260 258 256 255 254 251 255 254 254 256 259 256 240 230 222 213 209 204 201 195 194 188 175 174 179
268 264 270 279 276 277 275 276 277 284 284 287 292 296 293 292 291 291 293 294 297 295 296 298 299 298 296 291 293 293 293 301 315 317 314 312 310 308 307 306 305 305 307 306 308 312 305 303 300 300 301 292 290 286 286 285 282 277 273 270 266 263 258 258 255 251 252 248 248 251 251 253 253 250 231 218 212 202 195 192 182 176 175 168 170 155 124
281 274 275 276 279 277 275 272 277 276 282 283 279 276 282 289 294 294 294 294 293 293 293 293 290 289 291 287 286 301 313 316 313 313 313 312 313 310 308 308 308 310 308 305 309 310 307 303 302 302 298 295 292 293 294 295 295 291 277 274 267 266 259 254 255 249 251 248 243 243 248 249 245 230 208 201 188 181 174 159 155 152 143 107 88 101 109
293 286 284 280 281 279 279 278 271 268 266 276 282 283 281 285 287 291 291 290 290 289 290 287 289 292 292 304 314 314 313 315 316 314 314 313 313 312 302 301 297 298 296 303 307 310 305 306 311 308 304 300 300 298 297 298 303 298 290 283 282 278 279 269 266 260 260 256 254 249 246 240 219 198 171 158 136 127 124 123 116 100 94 108 110 104 107
287 289 283 285 280 279 280 280 278 275 271 265 274 282 288 291 289 288 288 288 286 284 286 289 295 298 312 317 317 315 316 316 315 314 314 316 315 312 307 307 312 310 314 314 314 312 317 320 319 311 309 308 308 305 306 311 314 310 303 297 294 296 295 299 301 306 311 316 332 351 62 56 66 72 83 83 97 95 100 94 94 101 102 94 95 100 98
282 286 287 283 283 283 282 285 284 278 276 275 271 273 279 281 286 288 285 284 289 289 290 290 296 307 315 316 314 311 311 312 310 310 314 318 321 325 322 316 325 330 323 325 323 324 325 326 324 319 320 320 313 319 319 323 326 321 319 318 317 322 332 339 351 355 4 12 27 38 53 67 73 69 71 78 77 77 77 81 80 81 91 96 91 94 92
287 286 285 284 282 281 279 278 282 286 281 276 277 278 278 276 276 275 279 283 286 289 289 293 309 314 314 313 309 308 308 310 316 320 327 326 318 321 319 315 329 325 327 328 332 331 330 332 330 330 331 330 326 331 333 331 331 330 334 336 340 341 349 356 6 11 16 30 35 43 46 61 72 76 71 77 74 81 85 87 84 83 84 89 93 99 109
286 289 284 282 280 280 281 284 285 283 286 284 279 276 274 274 273 275 278 281 285 289 299 312 314 311 310 312 313 314 317 325 330 327 325 323 318 292 294 309 320 324 329 334 335 333 335 333 335 337 343 344 342 342 340 339 338 342 349 355 357 358 1 6 10 14 24 33 40 41 46 57 62 73 75 75 77 79 81 84 88 89 89 91 98 95 96
286 281 279 280 282 282 284 284 282 284 283 282 281 278 281 282 278 277 280 282 289 305 314 312 310 311 313 315 316 324 327 333 331 334 332 326 331 329 320 326 324 325 334 340 337 337 337 339 341 349 350 354 354 356 352 350 351 353 357 5 9 13 11 14 16 20 22 29 35 42 48 54 63 68 74 77 80 76 77 79 83 88 93 92 95 99 100
283 278 278 278 280 285 284 279 278 277 279 285 291 290 285 280 279 275 275 289 301 305 304 301 304 313 316 317 313 308 301 301 303 317 322 331 330 324 337 336 333 333 337 343 340 340 342 347 352 357 3 3 3 1 1 359 0 3 3 6 9 15 19 22 23 24 25 28 30 32 38 44 50 57 67 71 76 78 82 85 82 83 91 95 99 103 106
281 282 280 285 286 279 272 271 275 281 283 286 288 287 278 267 270 285 297 294 293 291 291 306 316 315 313 311 307 298 292 290 275 272 249 270 310 311 319 326 330 333 338 343 344 345 348 351 357 1 4 9 10 7 5 3 5 6 10 10 15 16 19 18 21 26 28 31 32 33 31 33 35 38 46 52 64 76 77 81 84 80 84 92 97 102 98
284 289 286 278 275 274 277 278 279 279 278 282 283 287 302 313 310 301 289 289 287 290 296 295 300 302 306 314 333 345 351 341 337 349 320 318 318 317 320 325 328 335 343 346 347 348 353 355 359 3 7 9 13 12 10 10 11 13 12 16 14 18 18 22 23 25 26 31 34 44 47 50 50 52 53 59 61 65 69 74 78 84 86 88 93 96 96
286 285 285 284 281 284 290 290 291 284 283 276 287 306 309 304 302 296 294 290 297 306 305 292 288 296 309 316 327 331 308 325 324 315 338 334 324 321 323 331 334 342 344 347 350 347 352 358 3 7 10 11 11 12 9 12 13 15 17 16 18 16 19 20 21 23 26 30 32 34 35 38 43 48 53 59 61 61 67 72 80 79 73 79 81 82 92
286 279 280 281 279 280 284 285 286 285 290 302 311 302 305 298 295 298 303 306 315 315 301 288 284 300 315 338 337 326 309 286 232 270 308 316 315 320 321 330 337 344 347 346 349 347 353 359 4 9 11 13 15 13 14 13 14 15 17 18 19 19 18 22 23 22 29 31 34 35 41 42 45 48 55 55 57 57 63 68 70 71 79 77 76 76 81
296 298 300 303 300 302 299 300 298 298 309 310 303 304 293 303 309 311 318 328 332 324 298 294 314 345 358 348 343 330 324 319 298 288 291 304 312 317 328 333 336 346 351 349 348 350 350 356 2 6 10 12 13 16 17 16 17 20 21 18 20 23 20 19 22 25 26 29 29 32 35 41 45 52 56 58 58 61 65 70 71 71 72 77 73 57 62
309 307 293 287 290 294 297 302 309 320 314 312 299 302 315 320 314 321 321 341 338 336 349 353 5 3 355 349 341 338 334 328 324 321 324 326 329 335 340 341 344 350 350 352 356 351 352 356 356 1 3 7 12 15 19 18 19 20 21 23 21 23 19 20 25 29 30 30 33 34 34 36 37 44 43 48 52 56 53 57 59 59 63 74 77 82 86
311 295 296 340 329 336 333 326 321 318 311 303 293 305 320 330 325 326 329 357 355 354 358 356 349 354 5 349 344 341 341 338 338 336 341 340 344 344 342 346 351 353 356 358 355 354 355 355 357 358 3 7 7 7 6 14 21 22 21 22 22 24 26 26 23 30 30 31 36 44 40 40 44 49 48 46 53 57 58 61 65 70 74 79 86 93 97